Weather History for Sydney Airport, New South Wales

Change the Weather History Date:

Tuesday, April 8, 2014

  Actual Average Record
Temperature  
Mean Temperature 68 °F -  
Max Temperature 73 °F 72 °F - ()
Min Temperature 63 °F 55 °F - ()
Cooling Degree Days 3    
Growing Degree Days 18 (Base 50)    
Moisture  
Dew Point 57 °F    
Average Humidity 65    
Maximum Humidity 83    
Minimum Humidity 41    
Precipitation  
Precipitation 0.00 in 0.15 in - ()
Sea Level Pressure  
Sea Level Pressure 30.16 in    
Wind  
Wind Speed 6 mph ()    
Max Wind Speed 12 mph    
Max Gust Speed -    
Visibility 7.7 miles    
Events Rain    
T = Trace of Precipitation, MM = Missing Value Source: Averaged Metar Reports

Daily Weather History Graph

Daily Weather History Graph

Search for Another Location

Airport:

Trip Planner

Search our weather history database for the weather conditions in past years. The results will help you decide how hot, cold, wet, or windy it might be!

Date:

Astronomy

Apr. 08, 2014 Rise Set
Actual Time 6:12 AM AEST 5:41 PM AEST
Civil Twilight 5:47 AM AEST 6:06 PM AEST
Nautical Twilight 5:18 AM AEST 6:35 PM AEST
Astronomical Twilight 4:49 AM AEST 7:04 PM AEST
Moon 1:24 PM AEST (4/8) No Moon Set
Length of Visible Light 12h 19m
Length of Day
11h 29m
First Quarter, 57% of the Moon is Illuminated
Apr 8
First Quarter
Apr 15
Full
Apr 22
Last Quarter
Apr 29
New
May 7
First Quarter

Hourly Weather History & Observations

Time (AEST) Temp. Dew Point Humidity Pressure Visibility Wind Dir Wind Speed Gust Speed Precip Events Conditions
12:00 AM 66 °F 57 °F 66% 30.23 in 16 mi WSW 5.8 mph - -   Partly Cloudy
12:00 AM 66.2 °F 57.2 °F 73% 30.21 in 6.2 mi WSW 5.8 mph - N/A   Mostly Cloudy
12:30 AM 66.2 °F 59.0 °F 78% 30.21 in 6.2 mi WSW 8.1 mph - N/A   Mostly Cloudy
1:00 AM 65 °F 59 °F 75% 30.22 in - West 6.9 mph - -  
1:00 AM 66.2 °F 59.0 °F 78% 30.21 in 6.2 mi West 6.9 mph - N/A   Mostly Cloudy
1:30 AM 64.4 °F 59.0 °F 83% 30.18 in 6.2 mi West 4.6 mph - N/A   Mostly Cloudy
2:00 AM 64 °F 59 °F 79% 30.20 in - North 6.9 mph - -  
2:00 AM 64.4 °F 59.0 °F 83% 30.18 in 6.2 mi North 6.9 mph - N/A   Mostly Cloudy
2:30 AM 64.4 °F 59.0 °F 83% 30.18 in 6.2 mi NNW 5.8 mph - N/A   Mostly Cloudy
3:00 AM 64 °F 59 °F 80% 30.18 in 16 mi NW 6.9 mph - -   Mostly Cloudy
3:00 AM 64.4 °F 59.0 °F 83% 30.15 in 6.2 mi NW 6.9 mph - N/A   Mostly Cloudy
3:30 AM 64.4 °F 59.0 °F 83% 30.18 in 6.2 mi NW 6.9 mph - N/A   Mostly Cloudy
4:00 AM 64 °F 59 °F 79% 30.19 in - NW 5.8 mph - -  
4:00 AM 64.4 °F 59.0 °F 83% 30.18 in 6.2 mi NW 5.8 mph - N/A   Mostly Cloudy
4:30 AM 64.4 °F 59.0 °F 83% 30.15 in 6.2 mi NW 5.8 mph - N/A   Mostly Cloudy
5:00 AM 64 °F 59 °F 79% 30.17 in - North 4.6 mph - -  
5:00 AM 64.4 °F 59.0 °F 83% 30.15 in 6.2 mi North 4.6 mph - N/A   Mostly Cloudy
5:30 AM 64.4 °F 59.0 °F 83% 30.15 in 6.2 mi NW 5.8 mph - N/A   Mostly Cloudy
6:00 AM 64 °F 59 °F 79% 30.19 in 16 mi NW 8.1 mph - -   Partly Cloudy
6:00 AM 64.4 °F 59.0 °F 83% 30.18 in 6.2 mi NW 8.1 mph - N/A   Mostly Cloudy
6:30 AM 64.4 °F 59.0 °F 83% 30.18 in 6.2 mi West 5.8 mph - N/A   Mostly Cloudy
7:00 AM 67 °F 59 °F 68% 30.21 in - West 5.8 mph - -  
7:00 AM 66.2 °F 59.0 °F 78% 30.18 in 6.2 mi West 5.8 mph - N/A   Mostly Cloudy
7:30 AM 68.0 °F 59.0 °F 73% 30.21 in 6.2 mi NNW 5.8 mph - N/A   Mostly Cloudy
8:00 AM 68 °F 60 °F 68% 30.23 in - NW 6.9 mph - -  
8:00 AM 68.0 °F 59.0 °F 73% 30.21 in 6.2 mi NW 6.9 mph - N/A   Mostly Cloudy
8:30 AM 69.8 °F 59.0 °F 68% 30.21 in 6.2 mi NNW 5.8 mph - N/A   Mostly Cloudy
9:00 AM 68 °F 60 °F 67% 30.24 in 12 mi NW 6.9 mph - -   Mostly Cloudy
9:00 AM 68.0 °F 59.0 °F 73% 30.21 in 6.2 mi NW 6.9 mph - N/A   Mostly Cloudy
9:30 AM 71.6 °F 59.0 °F 64% 30.21 in 6.2 mi NW 5.8 mph - N/A   Mostly Cloudy
10:00 AM 72 °F 57 °F 50% 30.23 in - WNW 4.6 mph - -  
10:00 AM 73.4 °F 57.2 °F 57% 30.21 in 6.2 mi WNW 4.6 mph - N/A   Mostly Cloudy
10:30 AM 71.6 °F 57.2 °F 60% 30.21 in 6.2 mi SW 5.8 mph - N/A   Mostly Cloudy
11:00 AM 71 °F 61 °F 62% 30.20 in - SSW 5.8 mph - -  
11:00 AM 69.8 °F 60.8 °F 73% 30.18 in 6.2 mi SSW 5.8 mph - N/A   Mostly Cloudy
11:30 AM 71.6 °F 57.2 °F 60% 30.18 in 6.2 mi South 5.8 mph - N/A Rain Light Rain Showers
12:00 PM 70 °F 57 °F 54% 30.18 in 19 mi SSE 5.8 mph - - Rain Light Rain Showers
12:00 PM 69.8 °F 57.2 °F 64% 30.15 in 6.2 mi SSE 5.8 mph - N/A   Mostly Cloudy
12:30 PM 69.8 °F 57.2 °F 64% 30.15 in 6.2 mi South 4.6 mph - N/A   Mostly Cloudy
1:00 PM 71 °F 55 °F 46% 30.15 in - East 6.9 mph - -  
1:00 PM 71.6 °F 55.4 °F 57% 30.15 in 6.2 mi East 6.9 mph - N/A   Mostly Cloudy
1:30 PM 71.6 °F 55.4 °F 57% 30.12 in 6.2 mi ENE 8.1 mph - N/A   Mostly Cloudy
2:00 PM 72 °F 54 °F 43% 30.13 in - ENE 8.1 mph - -  
2:00 PM 71.6 °F 53.6 °F 53% 30.12 in 6.2 mi ENE 8.1 mph - N/A   Mostly Cloudy
2:30 PM 73.4 °F 53.6 °F 50% 30.12 in 6.2 mi East 9.2 mph - N/A   Mostly Cloudy
3:00 PM 72 °F 53 °F 41% 30.12 in 19 mi East 11.5 mph - -   Mostly Cloudy
3:00 PM 71.6 °F 53.6 °F 53% 30.12 in 6.2 mi East 11.5 mph - N/A   Mostly Cloudy
3:30 PM 73.4 °F 53.6 °F 50% 30.09 in 6.2 mi East 11.5 mph - N/A   Mostly Cloudy
4:00 PM 72 °F 53 °F 41% 30.12 in - NE 10.4 mph - -  
4:00 PM 71.6 °F 53.6 °F 53% 30.09 in 6.2 mi NE 10.4 mph - N/A   Scattered Clouds
4:30 PM 71.6 °F 53.6 °F 53% 30.09 in 6.2 mi NNE 10.4 mph - N/A   Scattered Clouds
5:00 PM 71 °F 53 °F 43% 30.12 in - NE 9.2 mph - -  
5:00 PM 71.6 °F 53.6 °F 53% 30.09 in 6.2 mi NE 9.2 mph - N/A   Mostly Cloudy
5:30 PM 71.6 °F 53.6 °F 53% 30.12 in 6.2 mi NE 8.1 mph - N/A   Mostly Cloudy
6:00 PM 70 °F 54 °F 46% 30.13 in 19 mi NE 5.8 mph - -   Partly Cloudy
6:00 PM 69.8 °F 53.6 °F 56% 30.12 in 6.2 mi NE 5.8 mph - N/A   Mostly Cloudy
6:30 PM 69.8 °F 53.6 °F 56% 30.12 in 6.2 mi NE 6.9 mph - N/A   Mostly Cloudy
7:00 PM 69 °F 54 °F 50% 30.15 in - NE 8.1 mph - -  
7:00 PM 69.8 °F 53.6 °F 56% 30.12 in 6.2 mi NE 8.1 mph - N/A   Partly Cloudy
7:30 PM 69.8 °F 53.6 °F 56% 30.15 in 6.2 mi NE 6.9 mph - N/A   Partly Cloudy
8:00 PM 69 °F 55 °F 51% 30.16 in - NNE 5.8 mph - -  
8:00 PM 69.8 °F 55.4 °F 60% 30.15 in 6.2 mi NNE 5.8 mph - N/A   Partly Cloudy
8:30 PM 68.0 °F 55.4 °F 64% 30.15 in 6.2 mi NNE 5.8 mph - N/A   Partly Cloudy
9:00 PM 68 °F 57 °F 58% 30.17 in 19 mi North 4.6 mph - -   Partly Cloudy
9:00 PM 68.0 °F 57.2 °F 68% 30.15 in 6.2 mi North 4.6 mph - N/A   Partly Cloudy
9:30 PM 66.2 °F 57.2 °F 73% 30.15 in 6.2 mi Calm Calm - N/A   Partly Cloudy
10:00 PM 67 °F 57 °F 62% 30.16 in - NW 4.6 mph - -  
10:00 PM 68.0 °F 57.2 °F 68% 30.15 in 6.2 mi NW 4.6 mph - N/A   Partly Cloudy
10:30 PM 66.2 °F 57.2 °F 73% 30.15 in 6.2 mi WNW 5.8 mph - N/A   Partly Cloudy
11:00 PM 66 °F 57 °F 64% 30.16 in - West 5.8 mph - -  
11:00 PM 66.2 °F 57.2 °F 73% 30.15 in 6.2 mi West 5.8 mph - N/A   Partly Cloudy
11:30 PM 64.4 °F 57.2 °F 77% 30.15 in 6.2 mi West 5.8 mph - N/A   Partly Cloudy